Time,TemperatureF,DewpointF,PressureIn,WindDirection,WindDirectionDegrees,WindSpeedMPH,WindSpeedGustMPH,Humidity,HourlyPrecipIn,Conditions,Clouds,dailyrainin,SoftwareType,DateUTC
2013-06-06 00:00:00,54.8,48.4,30.15,WNW,301,0.0,0.0,79,0.00,,,0.00,Wunderground v.1.15,2013-06-06 04:00:00,
2013-06-06 00:10:00,54.7,48.3,30.14,WNW,301,0.0,0.0,79,0.00,,,0.00,Wunderground v.1.15,2013-06-06 04:10:00,
2013-06-06 00:20:00,54.4,48.0,30.14,WNW,301,0.0,0.0,79,0.00,,,0.00,Wunderground v.1.15,2013-06-06 04:20:00,
2013-06-06 00:30:00,53.9,47.5,30.14,WNW,301,0.0,0.0,79,0.00,,,0.00,Wunderground v.1.15,2013-06-06 04:30:00,
2013-06-06 00:40:00,53.6,47.2,30.14,WNW,301,0.0,0.0,79,0.00,,,0.00,Wunderground v.1.15,2013-06-06 04:40:00,
2013-06-06 00:50:00,53.3,47.9,30.14,WNW,301,0.0,0.0,82,0.00,,,0.00,Wunderground v.1.15,2013-06-06 04:50:00,
2013-06-06 01:00:00,53.1,47.7,30.14,WNW,301,0.0,0.0,82,0.00,,,0.00,Wunderground v.1.15,2013-06-06 05:00:00,
2013-06-06 01:10:00,52.6,47.6,30.13,WNW,301,0.0,0.0,83,0.00,,,0.00,Wunderground v.1.15,2013-06-06 05:10:00,
2013-06-06 01:20:00,52.3,47.3,30.13,WNW,301,0.0,0.0,83,0.00,,,0.00,Wunderground v.1.15,2013-06-06 05:20:00,
2013-06-06 01:30:00,52.3,47.6,30.14,WNW,301,0.0,0.0,84,0.00,,,0.00,Wunderground v.1.15,2013-06-06 05:30:00,
2013-06-06 01:40:00,52.2,47.5,30.14,WNW,301,0.0,0.0,84,0.00,,,0.00,Wunderground v.1.15,2013-06-06 05:40:00,
2013-06-06 01:50:00,52.3,47.9,30.14,WNW,301,0.0,0.0,85,0.00,,,0.00,Wunderground v.1.15,2013-06-06 05:50:00,
2013-06-06 02:00:00,52.3,47.6,30.14,WNW,301,0.0,0.0,84,0.00,,,0.00,Wunderground v.1.15,2013-06-06 06:00:00,
2013-06-06 02:10:00,52.5,48.1,30.15,WNW,301,0.0,0.0,85,0.00,,,0.00,Wunderground v.1.15,2013-06-06 06:10:00,
2013-06-06 02:20:00,52.5,48.4,30.15,WNW,301,0.0,0.0,86,0.00,,,0.00,Wunderground v.1.15,2013-06-06 06:20:00,
2013-06-06 02:30:00,52.5,48.4,30.15,WNW,301,0.0,0.0,86,0.00,,,0.00,Wunderground v.1.15,2013-06-06 06:30:00,
2013-06-06 02:40:00,52.5,48.4,30.15,WNW,301,0.0,0.0,86,0.00,,,0.00,Wunderground v.1.15,2013-06-06 06:40:00,
2013-06-06 02:50:00,52.3,48.9,30.15,WNW,301,0.0,0.0,88,0.00,,,0.00,Wunderground v.1.15,2013-06-06 06:50:00,
2013-06-06 03:00:00,51.9,48.5,30.15,WNW,301,0.0,0.0,88,0.00,,,0.00,Wunderground v.1.15,2013-06-06 07:00:00,
2013-06-06 03:10:00,51.7,48.3,30.15,WNW,301,0.0,0.0,88,0.00,,,0.00,Wunderground v.1.15,2013-06-06 07:10:00,
2013-06-06 03:20:00,51.7,48.3,30.15,WNW,301,0.0,0.0,88,0.00,,,0.00,Wunderground v.1.15,2013-06-06 07:20:00,
2013-06-06 03:30:00,51.9,48.2,30.14,WNW,301,0.0,0.0,87,0.00,,,0.00,Wunderground v.1.15,2013-06-06 07:30:00,
2013-06-06 03:40:00,51.9,48.5,30.14,WNW,301,0.0,0.0,88,0.00,,,0.00,Wunderground v.1.15,2013-06-06 07:40:00,
2013-06-06 03:50:00,51.7,48.3,30.14,WNW,301,0.0,0.0,88,0.00,,,0.00,Wunderground v.1.15,2013-06-06 07:50:00,
2013-06-06 04:00:00,51.7,48.3,30.14,WNW,301,0.0,0.0,88,0.00,,,0.00,Wunderground v.1.15,2013-06-06 08:00:00,
2013-06-06 04:10:00,51.3,48.2,30.14,WNW,301,0.0,0.0,89,0.00,,,0.00,Wunderground v.1.15,2013-06-06 08:10:00,
2013-06-06 04:20:00,50.8,47.7,30.14,WNW,301,0.0,0.0,89,0.00,,,0.00,Wunderground v.1.15,2013-06-06 08:20:00,
2013-06-06 04:40:00,50.7,47.6,30.14,WNW,301,0.0,0.0,89,0.00,,,0.00,Wunderground v.1.15,2013-06-06 08:40:00,
2013-06-06 04:50:00,50.4,47.3,30.13,WNW,301,0.0,0.0,89,0.00,,,0.00,Wunderground v.1.15,2013-06-06 08:50:00,
2013-06-06 05:00:00,49.9,47.1,30.13,WNW,301,0.0,0.0,90,0.00,,,0.00,Wunderground v.1.15,2013-06-06 09:00:00,
2013-06-06 05:10:00,49.9,46.8,30.13,WNW,301,0.0,0.0,89,0.00,,,0.00,Wunderground v.1.15,2013-06-06 09:10:00,
2013-06-06 05:20:00,50.2,47.1,30.13,WNW,301,0.0,0.0,89,0.00,,,0.00,Wunderground v.1.15,2013-06-06 09:20:00,
2013-06-06 05:30:00,49.8,47.0,30.13,WNW,301,0.0,0.0,90,0.00,,,0.00,Wunderground v.1.15,2013-06-06 09:30:00,
2013-06-06 05:40:00,49.2,46.7,30.13,WNW,301,0.0,0.0,91,0.00,,,0.00,Wunderground v.1.15,2013-06-06 09:40:00,
2013-06-06 05:50:00,48.8,46.6,30.14,WNW,301,0.0,0.0,92,0.00,,,0.00,Wunderground v.1.15,2013-06-06 09:50:00,
2013-06-06 06:00:00,49.1,47.4,30.14,WNW,301,0.0,0.0,94,0.00,,,0.00,Wunderground v.1.15,2013-06-06 10:00:00,
2013-06-06 06:10:00,49.2,47.5,30.15,WNW,301,0.0,0.0,94,0.00,,,0.00,Wunderground v.1.15,2013-06-06 10:10:00,
2013-06-06 06:20:00,49.6,47.7,30.15,WNW,301,0.0,0.0,93,0.00,,,0.00,Wunderground v.1.15,2013-06-06 10:20:00,
2013-06-06 06:30:00,49.9,48.0,30.15,WNW,301,0.0,0.0,93,0.00,,,0.00,Wunderground v.1.15,2013-06-06 10:30:00,
2013-06-06 06:40:00,50.4,48.7,30.15,WNW,301,0.0,0.0,94,0.00,,,0.00,Wunderground v.1.15,2013-06-06 10:40:00,
2013-06-06 06:50:00,50.7,48.7,30.16,WNW,301,0.0,0.0,93,0.00,,,0.00,Wunderground v.1.15,2013-06-06 10:50:00,
2013-06-06 07:00:00,51.3,49.1,30.15,WNW,301,0.0,0.0,92,0.00,,,0.00,Wunderground v.1.15,2013-06-06 11:00:00,
2013-06-06 07:10:00,52.0,49.7,30.15,WNW,301,0.0,0.0,92,0.00,,,0.00,Wunderground v.1.15,2013-06-06 11:10:00,
2013-06-06 07:20:00,52.2,48.8,30.15,WNW,301,0.0,0.0,88,0.00,,,0.00,Wunderground v.1.15,2013-06-06 11:20:00,
2013-06-06 07:30:00,52.9,49.4,30.15,WNW,301,0.0,0.0,88,0.00,,,0.00,Wunderground v.1.15,2013-06-06 11:30:00,
2013-06-06 07:40:00,53.8,49.4,30.15,WNW,301,0.0,0.0,85,0.00,,,0.00,Wunderground v.1.15,2013-06-06 11:40:00,
2013-06-06 07:50:00,54.8,49.7,30.15,WNW,301,0.0,0.0,83,0.00,,,0.00,Wunderground v.1.15,2013-06-06 11:50:00,
2013-06-06 08:00:00,56.2,50.8,30.15,WNW,301,0.0,0.0,82,0.00,,,0.00,Wunderground v.1.15,2013-06-06 12:00:00,
2013-06-06 08:10:00,56.9,51.1,30.15,WNW,301,0.0,0.0,81,0.00,,,0.00,Wunderground v.1.15,2013-06-06 12:10:00,
2013-06-06 08:20:00,58.0,53.2,30.15,WNW,301,0.0,0.0,84,0.00,,,0.00,Wunderground v.1.15,2013-06-06 12:20:00,
2013-06-06 08:30:00,59.3,53.1,30.15,WNW,301,0.0,0.0,80,0.00,,,0.00,Wunderground v.1.15,2013-06-06 12:30:00,
2013-06-06 08:40:00,59.9,52.3,30.14,WNW,301,0.0,0.0,76,0.00,,,0.00,Wunderground v.1.15,2013-06-06 12:40:00,
2013-06-06 08:50:00,60.1,52.1,30.13,West,261,0.0,0.0,75,0.00,,,0.00,Wunderground v.1.15,2013-06-06 12:50:00,
2013-06-06 09:00:00,60.9,52.6,30.13,SSW,194,0.0,2.0,74,0.00,,,0.00,Wunderground v.1.15,2013-06-06 13:00:00,
2013-06-06 09:10:00,61.6,52.5,30.13,SSE,150,1.0,1.0,72,0.00,,,0.00,Wunderground v.1.15,2013-06-06 13:10:00,
2013-06-06 09:20:00,62.1,48.5,30.12,South,172,1.0,1.0,61,0.00,,,0.00,Wunderground v.1.15,2013-06-06 13:20:00,
2013-06-06 09:30:00,62.9,49.2,30.12,NNE,25,0.0,0.0,61,0.00,,,0.00,Wunderground v.1.15,2013-06-06 13:30:00,
2013-06-06 09:40:00,63.7,47.2,30.12,ENE,59,1.0,1.0,55,0.00,,,0.00,Wunderground v.1.15,2013-06-06 13:40:00,
2013-06-06 09:50:00,66.1,47.4,30.11,NE,37,2.0,2.0,51,0.00,,,0.00,Wunderground v.1.15,2013-06-06 13:50:00,
2013-06-06 10:00:00,66.8,47.0,30.11,SSE,168,3.0,5.0,49,0.00,,,0.00,Wunderground v.1.15,2013-06-06 14:00:00,
2013-06-06 10:10:00,66.8,45.9,30.11,SSE,147,4.0,10.0,47,0.00,,,0.00,Wunderground v.1.15,2013-06-06 14:10:00,
2013-06-06 10:20:00,67.1,46.7,30.11,SSE,160,4.0,5.0,48,0.00,,,0.00,Wunderground v.1.15,2013-06-06 14:20:00,
2013-06-06 10:30:00,67.1,47.3,30.11,ESE,121,3.0,3.0,49,0.00,,,0.00,Wunderground v.1.15,2013-06-06 14:30:00,
2013-06-06 10:40:00,67.4,48.1,30.11,ESE,104,2.0,2.0,50,0.00,,,0.00,Wunderground v.1.15,2013-06-06 14:40:00,
2013-06-06 10:50:00,67.9,48.6,30.10,ESE,121,2.0,2.0,50,0.00,,,0.00,Wunderground v.1.15,2013-06-06 14:50:00,
2013-06-06 11:00:00,68.9,50.5,30.10,WNW,290,2.0,2.0,52,0.00,,,0.00,Wunderground v.1.15,2013-06-06 15:00:00,
2013-06-06 11:10:00,69.1,49.1,30.10,SE,140,1.0,1.0,49,0.00,,,0.00,Wunderground v.1.15,2013-06-06 15:10:00,
2013-06-06 11:20:00,69.1,49.7,30.10,SSE,154,2.0,2.0,50,0.00,,,0.00,Wunderground v.1.15,2013-06-06 15:20:00,
2013-06-06 11:30:00,68.9,50.0,30.10,ENE,66,2.0,10.0,51,0.00,,,0.00,Wunderground v.1.15,2013-06-06 15:30:00,
2013-06-06 11:40:00,68.6,50.8,30.09,SE,143,3.0,3.0,53,0.00,,,0.00,Wunderground v.1.15,2013-06-06 15:40:00,
2013-06-06 11:50:00,68.9,49.5,30.09,East,89,4.0,4.0,50,0.00,,,0.00,Wunderground v.1.15,2013-06-06 15:50:00,
2013-06-06 12:00:00,69.3,49.3,30.08,NW,306,2.0,2.0,49,0.00,,,0.00,Wunderground v.1.15,2013-06-06 16:00:00,
2013-06-06 12:10:00,70.1,51.7,30.08,East,99,1.0,1.0,52,0.00,,,0.00,Wunderground v.1.15,2013-06-06 16:10:00,
2013-06-06 12:20:00,70.8,50.1,30.08,SSE,168,3.0,4.0,48,0.00,,,0.00,Wunderground v.1.15,2013-06-06 16:20:00,
2013-06-06 12:30:00,70.9,53.4,30.08,WSW,252,2.0,2.0,54,0.00,,,0.00,Wunderground v.1.15,2013-06-06 16:30:00,
2013-06-06 12:40:00,71.3,54.8,30.08,SE,141,2.0,4.0,56,0.00,,,0.00,Wunderground v.1.15,2013-06-06 16:40:00,
2013-06-06 12:50:00,69.9,53.5,30.08,SSW,207,1.0,1.0,56,0.00,,,0.00,Wunderground v.1.15,2013-06-06 16:50:00,
2013-06-06 13:00:00,69.9,53.0,30.08,SSW,207,0.0,0.0,55,0.00,,,0.00,Wunderground v.1.15,2013-06-06 17:00:00,
2013-06-06 13:10:00,70.6,55.1,30.08,SSW,207,0.0,14.0,58,0.00,,,0.00,Wunderground v.1.15,2013-06-06 17:10:00,
2013-06-06 13:20:00,70.6,52.1,30.07,SSW,207,0.0,14.0,52,0.00,,,0.00,Wunderground v.1.15,2013-06-06 17:20:00,
2013-06-06 13:30:00,71.3,55.8,30.07,SE,143,1.0,14.0,58,0.00,,,0.00,Wunderground v.1.15,2013-06-06 17:30:00,
2013-06-06 13:40:00,71.1,50.4,30.07,SE,131,2.0,2.0,48,0.00,,,0.00,Wunderground v.1.15,2013-06-06 17:40:00,
2013-06-06 13:50:00,70.9,48.5,30.06,ESE,115,2.0,2.0,45,0.00,,,0.00,Wunderground v.1.15,2013-06-06 17:50:00,
2013-06-06 14:00:00,70.1,53.7,30.06,SSE,158,1.0,1.0,56,0.00,,,0.00,Wunderground v.1.15,2013-06-06 18:00:00,
2013-06-06 14:10:00,69.3,49.9,30.06,SE,131,1.0,1.0,50,0.00,,,0.00,Wunderground v.1.15,2013-06-06 18:10:00,
2013-06-06 14:20:00,68.4,47.4,30.06,SE,131,2.0,2.0,47,0.00,,,0.00,Wunderground v.1.15,2013-06-06 18:20:00,
2013-06-06 14:30:00,67.6,48.3,30.06,ENE,73,1.0,14.0,50,0.00,,,0.00,Wunderground v.1.15,2013-06-06 18:30:00,
2013-06-06 14:40:00,67.4,50.2,30.05,SE,144,1.0,14.0,54,0.00,,,0.00,Wunderground v.1.15,2013-06-06 18:40:00,
2013-06-06 14:50:00,68.1,50.8,30.05,SE,143,1.0,1.0,54,0.00,,,0.00,Wunderground v.1.15,2013-06-06 18:50:00,
2013-06-06 15:00:00,68.6,46.4,30.05,East,98,2.0,2.0,45,0.00,,,0.00,Wunderground v.1.15,2013-06-06 19:00:00,
2013-06-06 15:10:00,68.3,44.9,30.05,ESE,121,2.0,2.0,43,0.00,,,0.00,Wunderground v.1.15,2013-06-06 19:10:00,
2013-06-06 15:20:00,67.3,46.9,30.05,ENE,75,1.0,14.0,48,0.00,,,0.00,Wunderground v.1.15,2013-06-06 19:20:00,
2013-06-06 15:30:00,66.9,49.2,30.06,NNW,331,1.0,1.0,53,0.00,,,0.00,Wunderground v.1.15,2013-06-06 19:30:00,
2013-06-06 15:40:00,66.8,48.6,30.06,SSE,147,1.0,1.0,52,0.00,,,0.00,Wunderground v.1.15,2013-06-06 19:40:00,
2013-06-06 15:50:00,66.6,51.8,30.06,SSE,147,0.0,14.0,59,0.00,,,0.00,Wunderground v.1.15,2013-06-06 19:50:00,
2013-06-06 16:00:00,66.9,50.2,30.06,East,82,0.0,14.0,55,0.00,,,0.00,Wunderground v.1.15,2013-06-06 20:00:00,
2013-06-06 16:10:00,67.1,50.9,30.05,ESE,116,0.0,14.0,56,0.00,,,0.00,Wunderground v.1.15,2013-06-06 20:10:00,
2013-06-06 16:20:00,66.8,53.8,30.05,SE,131,0.0,14.0,63,0.00,,,0.00,Wunderground v.1.15,2013-06-06 20:20:00,
2013-06-06 16:30:00,66.4,53.0,30.06,SE,126,0.0,14.0,62,0.00,,,0.00,Wunderground v.1.15,2013-06-06 20:30:00,
2013-06-06 16:40:00,66.1,51.8,30.06,ESE,121,0.0,14.0,60,0.00,,,0.00,Wunderground v.1.15,2013-06-06 20:40:00,
2013-06-06 16:50:00,66.3,52.9,30.05,ESE,121,0.0,14.0,62,0.00,,,0.00,Wunderground v.1.15,2013-06-06 20:50:00,
2013-06-06 17:00:00,66.1,54.0,30.05,SE,143,0.0,14.0,65,0.00,,,0.00,Wunderground v.1.15,2013-06-06 21:00:00,
2013-06-06 17:10:00,66.0,54.3,30.05,ENE,58,0.0,14.0,66,0.00,,,0.00,Wunderground v.1.15,2013-06-06 21:10:00,
2013-06-06 17:20:00,65.6,52.2,30.05,SE,126,0.0,14.0,62,0.00,,,0.00,Wunderground v.1.15,2013-06-06 21:20:00,
2013-06-06 17:30:00,65.0,51.7,30.05,East,91,0.0,14.0,62,0.00,,,0.00,Wunderground v.1.15,2013-06-06 21:30:00,
2013-06-06 17:40:00,65.0,51.2,30.05,ESE,121,2.0,2.0,61,0.00,,,0.00,Wunderground v.1.15,2013-06-06 21:40:00,
2013-06-06 17:50:00,65.2,51.8,30.05,SE,131,1.0,1.0,62,0.00,,,0.00,Wunderground v.1.15,2013-06-06 21:50:00,
2013-06-06 18:00:00,64.8,48.7,30.05,SE,137,0.0,14.0,56,0.00,,,0.00,Wunderground v.1.15,2013-06-06 22:00:00,
2013-06-06 18:10:00,65.0,49.9,30.05,SSE,162,1.0,2.0,58,0.00,,,0.00,Wunderground v.1.15,2013-06-06 22:10:00,
2013-06-06 18:20:00,65.0,51.7,30.05,SE,135,0.0,0.0,62,0.00,,,0.00,Wunderground v.1.15,2013-06-06 22:20:00,
2013-06-06 18:30:00,65.0,52.1,30.05,ESE,113,0.0,0.0,63,0.00,,,0.00,Wunderground v.1.15,2013-06-06 22:30:00,
2013-06-06 18:40:00,65.0,52.1,30.05,SE,143,1.0,1.0,63,0.00,,,0.00,Wunderground v.1.15,2013-06-06 22:40:00,
2013-06-06 18:50:00,65.2,51.8,30.05,ENE,75,1.0,1.0,62,0.00,,,0.00,Wunderground v.1.15,2013-06-06 22:50:00,
2013-06-06 19:00:00,64.5,51.6,30.05,East,86,0.0,0.0,63,0.00,,,0.00,Wunderground v.1.15,2013-06-06 23:00:00,
2013-06-06 19:10:00,64.2,52.2,30.05,SE,145,1.0,1.0,65,0.00,,,0.00,Wunderground v.1.15,2013-06-06 23:10:00,
2013-06-06 19:20:00,63.5,51.5,30.05,SSE,152,0.0,8.0,65,0.00,,,0.00,Wunderground v.1.15,2013-06-06 23:20:00,
2013-06-06 19:30:00,63.2,50.8,30.05,ESE,106,0.0,8.0,64,0.00,,,0.00,Wunderground v.1.15,2013-06-06 23:30:00,
2013-06-06 19:40:00,62.6,53.1,30.05,ESE,121,0.0,8.0,71,0.00,,,0.00,Wunderground v.1.15,2013-06-06 23:40:00,
2013-06-06 19:50:00,62.4,50.5,30.06,SE,126,2.0,8.0,65,0.00,,,0.00,Wunderground v.1.15,2013-06-06 23:50:00,
2013-06-06 20:00:00,61.6,50.9,30.06,ESE,121,2.0,8.0,68,0.00,,,0.00,Wunderground v.1.15,2013-06-07 00:00:00,
2013-06-06 20:10:00,60.2,50.8,30.07,East,99,1.0,8.0,71,0.00,,,0.00,Wunderground v.1.15,2013-06-07 00:10:00,
2013-06-06 20:20:00,59.9,49.7,30.08,ESE,112,1.0,1.0,69,0.00,,,0.00,Wunderground v.1.15,2013-06-07 00:20:00,
2013-06-06 20:30:00,59.2,48.2,30.08,ESE,121,0.0,8.0,67,0.00,,,0.00,Wunderground v.1.15,2013-06-07 00:30:00,
2013-06-06 20:40:00,58.7,48.6,30.08,ENE,68,1.0,1.0,69,0.00,,,0.00,Wunderground v.1.15,2013-06-07 00:40:00,
2013-06-06 20:50:00,58.1,47.6,30.07,ESE,121,0.0,8.0,68,0.00,,,0.00,Wunderground v.1.15,2013-06-07 00:50:00,
2013-06-06 21:00:00,58.3,47.4,30.07,SE,131,1.0,1.0,67,0.00,,,0.00,Wunderground v.1.15,2013-06-07 01:00:00,
2013-06-06 21:10:00,57.6,46.7,30.07,ESE,112,0.0,8.0,67,0.00,,,0.00,Wunderground v.1.15,2013-06-07 01:10:00,
2013-06-06 21:20:00,57.5,45.8,30.07,ESE,112,0.0,8.0,65,0.00,,,0.00,Wunderground v.1.15,2013-06-07 01:20:00,
2013-06-06 21:30:00,57.0,46.9,30.07,ESE,112,0.0,8.0,69,0.00,,,0.00,Wunderground v.1.15,2013-06-07 01:30:00,
2013-06-06 21:40:00,56.0,48.5,30.08,ESE,110,0.0,8.0,76,0.00,,,0.00,Wunderground v.1.15,2013-06-07 01:40:00,
2013-06-06 21:50:00,55.1,49.7,30.08,ESE,110,0.0,8.0,82,0.00,,,0.00,Wunderground v.1.15,2013-06-07 01:50:00,
2013-06-06 22:00:00,54.7,50.6,30.08,ESE,110,0.0,8.0,86,0.00,,,0.01,Wunderground v.1.15,2013-06-07 02:00:00,
2013-06-06 22:10:00,54.4,51.2,30.08,ESE,110,0.0,8.0,89,0.00,,,0.01,Wunderground v.1.15,2013-06-07 02:10:00,
2013-06-06 22:20:00,54.2,51.6,30.08,ESE,110,0.0,8.0,91,0.00,,,0.01,Wunderground v.1.15,2013-06-07 02:20:00,
2013-06-06 22:30:00,54.1,52.1,30.08,ESE,110,0.0,8.0,93,0.00,,,0.02,Wunderground v.1.15,2013-06-07 02:30:00,
2013-06-06 22:40:00,53.9,52.5,30.08,ESE,110,0.0,8.0,95,0.00,,,0.03,Wunderground v.1.15,2013-06-07 02:40:00,
2013-06-06 22:50:00,53.6,51.9,30.08,ESE,110,0.0,8.0,94,0.07,,,0.04,Wunderground v.1.15,2013-06-07 02:50:00,
2013-06-06 23:00:00,53.5,52.1,30.08,ESE,110,0.0,8.0,95,0.05,,,0.04,Wunderground v.1.15,2013-06-07 03:00:00,
2013-06-06 23:10:00,53.5,52.4,30.08,ESE,110,0.0,8.0,96,0.00,,,0.05,Wunderground v.1.15,2013-06-07 03:10:00,
2013-06-06 23:20:00,53.5,52.7,30.07,ESE,110,0.0,8.0,97,0.06,,,0.06,Wunderground v.1.15,2013-06-07 03:20:00,
2013-06-06 23:30:00,53.3,52.5,30.06,ESE,110,0.0,8.0,97,0.04,,,0.06,Wunderground v.1.15,2013-06-07 03:30:00,
2013-06-06 23:40:00,53.2,52.4,30.06,ESE,110,0.0,8.0,97,0.00,,,0.07,Wunderground v.1.15,2013-06-07 03:40:00,
2013-06-06 23:50:00,53.5,52.9,30.05,ESE,110,0.0,8.0,98,0.00,,,0.07,Wunderground v.1.15,2013-06-07 03:50:00,